AAL700 KSJC-KSGU

Flight info

Callsign AAL700
Flight time 1h 13m
Altitude 37000
Route SPTNS1 TECKY NTELL KROST ILC/N0454F360 GHABY
Aircraft A21N/M-SDE2E3FGHIRWXY/LB1

Departure

Time 2026-04-25 16:56
Airport Norman Y. Mineta San Jose International Airport (KSJC)

Arrival

Time 2026-04-25 18:10
Airport St George Regional Airport (KSGU)
Time Latitude Longitude Altitude Speed Heading
2026-04-25 16:08 37.36298 -121.92338 54 ft 0 kts 49°
2026-04-25 16:47 37.36296 -121.92342 54 ft 2 kts 49°
2026-04-25 16:47 37.36287 -121.92357 55 ft 2 kts 66°
2026-04-25 16:47 37.36282 -121.92374 55 ft 2 kts 78°
2026-04-25 16:47 37.36281 -121.92394 56 ft 2 kts 93°
2026-04-25 16:48 37.36283 -121.92411 56 ft 2 kts 107°
2026-04-25 16:48 37.36289 -121.92429 56 ft 2 kts 121°
2026-04-25 16:48 37.36298 -121.92444 56 ft 1 kts 135°
2026-04-25 16:48 37.36303 -121.92449 56 ft 1 kts 140°
2026-04-25 16:49 37.36304 -121.92451 56 ft 0 kts 139°
2026-04-25 16:51 37.36303 -121.92450 56 ft 1 kts 139°
2026-04-25 16:51 37.36287 -121.92432 56 ft 4 kts 139°
2026-04-25 16:51 37.36253 -121.92395 56 ft 8 kts 139°
2026-04-25 16:51 37.36238 -121.92378 57 ft 9 kts 139°
2026-04-25 16:52 37.36134 -121.92267 58 ft 14 kts 140°
2026-04-25 16:52 37.36053 -121.92178 59 ft 16 kts 140°
2026-04-25 16:52 37.35961 -121.92076 60 ft 18 kts 139°
2026-04-25 16:52 37.35859 -121.91964 61 ft 20 kts 140°
2026-04-25 16:53 37.35646 -121.91728 63 ft 20 kts 138°
2026-04-25 16:53 37.35553 -121.91625 64 ft 16 kts 138°
2026-04-25 16:53 37.35458 -121.91524 65 ft 18 kts 140°
2026-04-25 16:54 37.35354 -121.91427 66 ft 17 kts 161°
2026-04-25 16:54 37.35265 -121.91505 66 ft 13 kts 232°
2026-04-25 16:54 37.35202 -121.91599 66 ft 12 kts 227°
2026-04-25 16:54 37.35147 -121.91683 65 ft 10 kts 239°
2026-04-25 16:55 37.35153 -121.91766 65 ft 9 kts 311°
2026-04-25 16:55 37.35167 -121.91783 65 ft 0 kts 318°
2026-04-25 16:55 37.35242 -121.91866 65 ft 45 kts 314°
2026-04-25 16:55 37.35681 -121.92350 61 ft 120 kts 319°
2026-04-25 16:56 37.36476 -121.93218 122 ft 172 kts 318°
2026-04-25 16:56 37.37384 -121.94181 805 ft 173 kts 318°
2026-04-25 16:56 37.38295 -121.95152 1599 ft 174 kts 316°
2026-04-25 16:56 37.39188 -121.96155 2287 ft 181 kts 315°
2026-04-25 16:57 37.40177 -121.97228 2824 ft 199 kts 323°
2026-04-25 16:57 37.40588 -121.97522 2989 ft 206 kts 335°
2026-04-25 16:57 37.43073 -121.97190 3745 ft 245 kts 36°
2026-04-25 16:57 37.44123 -121.95451 4237 ft 265 kts 73°
2026-04-25 16:58 37.44198 -121.93147 4759 ft 270 kts 106°
2026-04-25 16:58 37.43292 -121.91127 4980 ft 269 kts 135°
2026-04-25 16:58 37.41896 -121.89541 4983 ft 267 kts 141°
2026-04-25 16:58 37.40472 -121.88054 4979 ft 267 kts 141°
2026-04-25 16:59 37.39079 -121.86507 4979 ft 267 kts 139°
2026-04-25 16:59 37.37725 -121.84906 4976 ft 267 kts 137°
2026-04-25 16:59 37.36396 -121.83276 4975 ft 267 kts 136°
2026-04-25 16:59 37.35080 -121.81631 4975 ft 267 kts 136°
2026-04-25 17:00 37.33765 -121.79977 4974 ft 266 kts 136°
2026-04-25 17:00 37.32447 -121.78355 4977 ft 267 kts 138°
2026-04-25 17:00 37.31044 -121.76753 5227 ft 274 kts 139°
2026-04-25 17:00 37.29630 -121.75150 6169 ft 275 kts 139°
2026-04-25 17:01 37.28230 -121.73564 7205 ft 273 kts 139°
2026-04-25 17:01 37.26825 -121.71972 8066 ft 277 kts 138°
2026-04-25 17:01 37.25391 -121.70348 8890 ft 282 kts 138°
2026-04-25 17:01 37.23932 -121.68697 9710 ft 285 kts 138°
2026-04-25 17:02 37.22451 -121.67023 10482 ft 290 kts 137°
2026-04-25 17:02 37.20923 -121.65293 10942 ft 306 kts 137°
2026-04-25 17:02 37.19303 -121.63458 11328 ft 324 kts 137°
2026-04-25 17:02 37.17589 -121.61517 11684 ft 342 kts 137°
2026-04-25 17:03 37.15778 -121.59468 12073 ft 357 kts 137°
2026-04-25 17:03 37.13919 -121.57369 12739 ft 363 kts 137°
2026-04-25 17:03 37.12035 -121.55246 13473 ft 367 kts 137°
2026-04-25 17:03 37.10130 -121.53098 14164 ft 371 kts 137°
2026-04-25 17:04 37.08242 -121.50888 14835 ft 374 kts 131°
2026-04-25 17:04 37.06789 -121.48186 15487 ft 377 kts 115°
2026-04-25 17:04 37.05999 -121.45069 16156 ft 380 kts 100°
2026-04-25 17:04 37.05656 -121.41821 16762 ft 384 kts 97°
2026-04-25 17:05 37.05354 -121.38464 17332 ft 389 kts 97°
2026-04-25 17:05 37.04735 -121.31662 18474 ft 398 kts 98°
2026-04-25 17:05 37.04413 -121.28255 18998 ft 403 kts 98°
2026-04-25 17:06 37.04079 -121.24774 19496 ft 408 kts 98°
2026-04-25 17:06 37.03735 -121.21235 20005 ft 412 kts 98°
2026-04-25 17:06 37.03383 -121.17635 20485 ft 417 kts 99°
2026-04-25 17:06 37.03027 -121.14033 20943 ft 422 kts 99°
2026-04-25 17:07 37.02665 -121.10375 21397 ft 427 kts 99°
2026-04-25 17:07 37.02301 -121.06718 21837 ft 431 kts 99°
2026-04-25 17:07 37.01928 -121.02979 22296 ft 435 kts 99°
2026-04-25 17:07 37.01549 -120.99198 22734 ft 439 kts 99°
2026-04-25 17:08 37.01173 -120.95451 23141 ft 443 kts 99°
2026-04-25 17:08 37.00785 -120.91596 23548 ft 448 kts 100°
2026-04-25 17:08 37.00396 -120.87740 23963 ft 452 kts 100°
2026-04-25 17:08 37.00001 -120.83845 24395 ft 455 kts 100°
2026-04-25 17:09 36.99600 -120.79897 24809 ft 458 kts 100°
2026-04-25 17:09 36.99199 -120.75990 25199 ft 461 kts 101°
2026-04-25 17:09 36.98791 -120.72015 25593 ft 464 kts 100°
2026-04-25 17:09 36.98380 -120.68017 25967 ft 467 kts 100°
2026-04-25 17:10 36.97962 -120.63984 26334 ft 470 kts 101°
2026-04-25 17:10 36.97541 -120.59927 26687 ft 473 kts 101°
2026-04-25 17:10 36.97118 -120.55864 27028 ft 475 kts 101°
2026-04-25 17:10 36.96688 -120.51730 27352 ft 478 kts 101°
2026-04-25 17:11 36.96258 -120.47617 27659 ft 481 kts 101°
2026-04-25 17:11 36.95827 -120.43500 28054 ft 482 kts 101°
2026-04-25 17:11 36.95394 -120.39375 28521 ft 481 kts 101°
2026-04-25 17:11 36.94960 -120.35259 28954 ft 480 kts 101°
2026-04-25 17:12 36.94521 -120.31108 29354 ft 480 kts 102°
2026-04-25 17:12 36.94084 -120.26995 29776 ft 479 kts 102°
2026-04-25 17:12 36.93650 -120.22918 30185 ft 478 kts 102°
2026-04-25 17:12 36.93209 -120.18800 30581 ft 478 kts 102°
2026-04-25 17:13 36.92767 -120.14698 30961 ft 477 kts 102°
2026-04-25 17:13 36.92620 -120.13326 31089 ft 477 kts 102°
2026-04-25 17:13 36.91885 -120.06536 31676 ft 476 kts 102°
2026-04-25 17:13 36.91439 -120.02438 32040 ft 475 kts 102°
2026-04-25 17:14 36.91047 -119.98342 32365 ft 477 kts 98°
2026-04-25 17:14 36.90979 -119.94208 32656 ft 481 kts 91°
2026-04-25 17:14 36.91292 -119.90074 32962 ft 484 kts 84°
2026-04-25 17:14 36.91997 -119.85956 33263 ft 486 kts 77°
2026-04-25 17:15 36.93068 -119.82012 33540 ft 488 kts 69°
2026-04-25 17:15 36.94524 -119.78157 33828 ft 488 kts 63°
2026-04-25 17:15 36.96137 -119.74441 34118 ft 488 kts 62°
2026-04-25 17:15 36.97773 -119.70772 34366 ft 488 kts 61°
2026-04-25 17:16 36.99427 -119.67059 34576 ft 488 kts 61°
2026-04-25 17:16 37.01054 -119.63371 34771 ft 488 kts 62°
2026-04-25 17:16 37.02679 -119.59651 34948 ft 489 kts 62°
2026-04-25 17:16 37.04316 -119.55887 35130 ft 490 kts 62°
2026-04-25 17:17 37.05928 -119.52168 35309 ft 490 kts 62°
2026-04-25 17:17 37.07542 -119.48431 35466 ft 491 kts 62°
2026-04-25 17:17 37.09161 -119.44675 35600 ft 493 kts 62°
2026-04-25 17:17 37.10798 -119.40871 35727 ft 494 kts 62°
2026-04-25 17:18 37.12403 -119.37136 35851 ft 496 kts 62°
2026-04-25 17:18 37.14040 -119.33323 35991 ft 497 kts 63°
2026-04-25 17:18 37.15683 -119.29494 36121 ft 497 kts 63°
2026-04-25 17:18 37.17322 -119.25665 36257 ft 498 kts 62°
2026-04-25 17:19 37.18944 -119.21874 36407 ft 499 kts 62°
2026-04-25 17:19 37.20584 -119.18038 36541 ft 500 kts 63°
2026-04-25 17:19 37.23856 -119.10362 36705 ft 504 kts 62°
2026-04-25 17:20 37.25511 -119.06477 36883 ft 504 kts 62°
2026-04-25 17:20 37.27167 -119.02578 36931 ft 505 kts 62°
2026-04-25 17:20 37.30440 -118.94870 36932 ft 505 kts 62°
2026-04-25 17:21 37.33731 -118.87098 36925 ft 505 kts 62°
2026-04-25 17:21 37.37022 -118.79313 36918 ft 505 kts 62°
2026-04-25 17:22 37.39756 -118.72818 36916 ft 506 kts 62°
2026-04-25 17:22 37.43565 -118.63763 36930 ft 507 kts 62°
2026-04-25 17:23 37.46848 -118.55934 36942 ft 507 kts 62°
2026-04-25 17:23 37.50126 -118.48098 36943 ft 507 kts 62°
2026-04-25 17:24 37.53405 -118.40241 36939 ft 507 kts 62°
2026-04-25 17:24 37.56665 -118.32414 36928 ft 508 kts 63°
2026-04-25 17:25 37.59935 -118.24535 36919 ft 508 kts 63°
2026-04-25 17:25 37.63203 -118.16646 36919 ft 508 kts 62°
2026-04-25 17:26 37.66447 -118.08798 36919 ft 508 kts 63°
2026-04-25 17:26 37.69693 -118.00916 36921 ft 508 kts 62°
2026-04-25 17:27 37.72955 -117.92986 36912 ft 509 kts 63°
2026-04-25 17:27 37.75105 -117.87743 36908 ft 508 kts 63°
2026-04-25 17:28 37.79429 -117.77178 36902 ft 509 kts 62°
2026-04-25 17:28 37.82666 -117.69247 36904 ft 509 kts 62°
2026-04-25 17:29 37.85876 -117.61356 36908 ft 508 kts 62°
2026-04-25 17:29 37.89113 -117.53386 36904 ft 509 kts 62°
2026-04-25 17:30 37.92323 -117.45458 36909 ft 508 kts 62°
2026-04-25 17:30 37.95534 -117.37511 36916 ft 509 kts 62°
2026-04-25 17:31 37.98729 -117.29583 36919 ft 509 kts 63°
2026-04-25 17:31 38.01933 -117.21610 36909 ft 509 kts 63°
2026-04-25 17:32 38.05127 -117.13638 36899 ft 509 kts 63°
2026-04-25 17:32 38.08326 -117.05640 36884 ft 509 kts 63°
2026-04-25 17:33 38.11516 -116.97641 36883 ft 509 kts 63°
2026-04-25 17:33 38.14691 -116.89655 36905 ft 509 kts 63°
2026-04-25 17:34 38.17860 -116.81668 36911 ft 510 kts 63°
2026-04-25 17:34 38.21056 -116.73590 36918 ft 510 kts 63°
2026-04-25 17:35 38.24223 -116.65570 36919 ft 511 kts 62°
2026-04-25 17:35 38.27397 -116.57504 36921 ft 511 kts 62°
2026-04-25 17:36 38.30561 -116.49443 36925 ft 511 kts 62°
2026-04-25 17:36 38.33720 -116.41373 36921 ft 511 kts 62°
2026-04-25 17:37 38.36872 -116.33298 36921 ft 511 kts 63°
2026-04-25 17:37 38.39697 -116.25046 36919 ft 512 kts 72°
2026-04-25 17:38 38.41027 -116.17707 36925 ft 510 kts 84°
2026-04-25 17:38 38.41121 -116.07346 36933 ft 504 kts 99°
2026-04-25 17:39 38.40289 -115.98476 36935 ft 503 kts 101°
2026-04-25 17:39 38.39437 -115.89677 36931 ft 503 kts 101°
2026-04-25 17:40 38.38620 -115.80809 36930 ft 503 kts 100°
2026-04-25 17:40 38.37815 -115.71976 36929 ft 504 kts 100°
2026-04-25 17:41 38.37014 -115.63179 36930 ft 504 kts 100°
2026-04-25 17:41 38.36203 -115.54366 36932 ft 505 kts 100°
2026-04-25 17:42 38.35383 -115.45512 36938 ft 505 kts 100°
2026-04-25 17:42 38.34551 -115.36620 36938 ft 505 kts 100°
2026-04-25 17:43 38.33720 -115.27799 36941 ft 506 kts 101°
2026-04-25 17:43 38.32880 -115.18941 36945 ft 505 kts 101°
2026-04-25 17:44 38.32029 -115.10062 36946 ft 505 kts 101°
2026-04-25 17:44 38.31178 -115.01270 36943 ft 506 kts 101°
2026-04-25 17:45 38.30601 -114.95327 36947 ft 506 kts 101°
2026-04-25 17:45 38.29442 -114.83512 36954 ft 506 kts 101°
2026-04-25 17:46 38.28566 -114.74654 36954 ft 507 kts 101°
2026-04-25 17:46 38.27687 -114.65818 36949 ft 507 kts 101°
2026-04-25 17:47 38.26794 -114.56947 36949 ft 507 kts 101°
2026-04-25 17:47 38.25892 -114.48113 36956 ft 506 kts 102°
2026-04-25 17:48 38.23459 -114.35230 36952 ft 498 kts 114°
2026-04-25 17:49 38.20867 -114.27156 36949 ft 493 kts 120°
2026-04-25 17:49 38.19482 -114.23186 36793 ft 496 kts 120°
2026-04-25 17:49 38.18073 -114.19151 36193 ft 498 kts 120°
2026-04-25 17:49 38.16680 -114.15144 35590 ft 499 kts 120°
2026-04-25 17:50 38.15281 -114.11108 34918 ft 501 kts 120°
2026-04-25 17:50 38.13906 -114.07130 34207 ft 501 kts 119°
2026-04-25 17:50 38.12513 -114.03098 33412 ft 501 kts 119°
2026-04-25 17:50 38.11115 -113.99057 32625 ft 500 kts 119°
2026-04-25 17:51 38.09729 -113.95057 31823 ft 500 kts 119°
2026-04-25 17:51 38.08331 -113.91024 31020 ft 499 kts 118°
2026-04-25 17:51 38.06949 -113.87039 30237 ft 499 kts 118°
2026-04-25 17:51 38.05548 -113.83012 29403 ft 500 kts 118°
2026-04-25 17:52 38.04137 -113.78954 28504 ft 502 kts 118°
2026-04-25 17:52 38.03679 -113.77638 28211 ft 503 kts 118°
2026-04-25 17:52 38.01333 -113.70908 26934 ft 499 kts 118°
2026-04-25 17:52 37.99954 -113.66950 26408 ft 493 kts 118°
2026-04-25 17:53 37.98576 -113.62998 25867 ft 487 kts 118°
2026-04-25 17:53 37.97224 -113.59131 25338 ft 481 kts 118°
2026-04-25 17:53 37.95878 -113.55292 24803 ft 476 kts 118°
2026-04-25 17:53 37.94546 -113.51501 24257 ft 472 kts 118°
2026-04-25 17:54 37.93214 -113.47714 23712 ft 467 kts 118°
2026-04-25 17:54 37.91899 -113.43980 23167 ft 463 kts 118°
2026-04-25 17:54 37.90604 -113.40311 22646 ft 460 kts 117°
2026-04-25 17:54 37.89311 -113.36650 22103 ft 456 kts 117°
2026-04-25 17:55 37.88009 -113.32973 21535 ft 453 kts 118°
2026-04-25 17:55 37.86732 -113.29366 20971 ft 449 kts 117°
2026-04-25 17:55 37.85471 -113.25806 20444 ft 445 kts 117°
2026-04-25 17:55 37.84214 -113.22259 19909 ft 441 kts 117°
2026-04-25 17:56 37.82964 -113.18743 19330 ft 438 kts 117°
2026-04-25 17:56 37.81731 -113.15276 18770 ft 434 kts 117°
2026-04-25 17:56 37.80237 -113.12002 18120 ft 426 kts 133°
2026-04-25 17:56 37.77996 -113.09680 17529 ft 412 kts 155°
2026-04-25 17:57 37.75354 -113.08666 16995 ft 398 kts 177°
2026-04-25 17:57 37.72662 -113.08997 16488 ft 385 kts 198°
2026-04-25 17:57 37.70195 -113.10098 16366 ft 368 kts 202°
2026-04-25 17:57 37.69368 -113.10479 16334 ft 363 kts 202°
2026-04-25 17:58 37.65547 -113.12166 16130 ft 339 kts 200°
2026-04-25 17:58 37.63351 -113.13083 16076 ft 323 kts 200°
2026-04-25 17:58 37.61266 -113.13939 16079 ft 306 kts 200°
2026-04-25 17:58 37.59311 -113.14735 16032 ft 292 kts 200°
2026-04-25 17:59 37.57384 -113.15522 15696 ft 288 kts 200°
2026-04-25 17:59 37.55501 -113.16290 15381 ft 284 kts 200°
2026-04-25 17:59 37.53637 -113.17051 15077 ft 280 kts 200°
2026-04-25 17:59 37.51786 -113.17804 14768 ft 275 kts 199°
2026-04-25 18:00 37.49981 -113.18538 14470 ft 271 kts 199°
2026-04-25 18:00 37.48213 -113.19292 14168 ft 266 kts 202°
2026-04-25 18:00 37.46551 -113.20209 13871 ft 262 kts 207°
2026-04-25 18:00 37.44963 -113.21307 13573 ft 258 kts 210°
2026-04-25 18:01 37.43431 -113.22429 13265 ft 254 kts 210°
2026-04-25 18:01 37.41907 -113.23547 12909 ft 251 kts 210°
2026-04-25 18:01 37.40418 -113.24639 12549 ft 247 kts 210°
2026-04-25 18:01 37.38953 -113.25713 12171 ft 243 kts 210°
2026-04-25 18:02 37.37489 -113.26785 11579 ft 248 kts 210°
2026-04-25 18:02 37.35983 -113.27888 10974 ft 253 kts 210°
2026-04-25 18:02 37.34458 -113.29004 10370 ft 257 kts 210°
2026-04-25 18:02 37.32911 -113.30135 9769 ft 260 kts 210°
2026-04-25 18:03 37.31354 -113.31273 9248 ft 259 kts 210°
2026-04-25 18:03 37.29821 -113.32392 8911 ft 251 kts 210°
2026-04-25 18:03 37.28335 -113.33478 8575 ft 244 kts 210°
2026-04-25 18:03 37.26871 -113.34546 8191 ft 240 kts 210°
2026-04-25 18:04 37.25446 -113.35585 7811 ft 236 kts 210°
2026-04-25 18:04 37.24038 -113.36613 7473 ft 230 kts 210°
2026-04-25 18:04 37.22678 -113.37603 7239 ft 219 kts 210°
2026-04-25 18:04 37.21396 -113.38538 6941 ft 209 kts 210°
2026-04-25 18:05 37.20179 -113.39423 6633 ft 200 kts 210°
2026-04-25 18:05 37.19000 -113.40282 6403 ft 186 kts 211°
2026-04-25 18:05 37.17938 -113.41051 6265 ft 173 kts 210°
2026-04-25 18:05 37.16892 -113.41808 5908 ft 172 kts 210°
2026-04-25 18:06 37.15881 -113.42541 5647 ft 161 kts 210°
2026-04-25 18:06 37.14941 -113.43221 5390 ft 153 kts 210°
2026-04-25 18:06 37.14033 -113.43879 5154 ft 150 kts 210°
2026-04-25 18:06 37.13126 -113.44535 4933 ft 149 kts 210°
2026-04-25 18:07 37.12222 -113.45188 4715 ft 149 kts 210°
2026-04-25 18:07 37.11332 -113.45832 4496 ft 148 kts 210°
2026-04-25 18:07 37.10437 -113.46480 4338 ft 148 kts 210°
2026-04-25 18:07 37.09605 -113.47206 4098 ft 148 kts 221°
2026-04-25 18:08 37.08823 -113.48036 3815 ft 146 kts 218°
2026-04-25 18:08 37.07971 -113.48722 3595 ft 145 kts 208°
2026-04-25 18:08 37.07044 -113.49258 3429 ft 146 kts 203°
2026-04-25 18:08 37.06099 -113.49740 3276 ft 146 kts 202°
2026-04-25 18:09 37.05168 -113.50221 3064 ft 146 kts 204°
2026-04-25 18:09 37.04240 -113.50719 2906 ft 143 kts 204°
2026-04-25 18:09 37.03406 -113.51158 2873 ft 110 kts 204°
2026-04-25 18:09 37.03189 -113.51276 2866 ft 93 kts 201°
2026-04-25 18:10 37.02594 -113.51585 2846 ft 25 kts 202°
2026-04-25 18:10 37.02470 -113.51608 2843 ft 14 kts 156°
2026-04-25 18:10 37.02426 -113.51519 2843 ft 10 kts 114°
2026-04-25 18:10 37.02419 -113.51497 2844 ft 0 kts 112°
2026-04-25 18:11 37.02418 -113.51495 2844 ft 0 kts 111°
2026-04-25 18:11 37.02413 -113.51477 2844 ft 5 kts 110°
2026-04-25 18:11 37.02415 -113.51408 2845 ft 11 kts 45°
2026-04-25 18:11 37.02506 -113.51404 2846 ft 16 kts
2026-04-25 18:12 37.02625 -113.51343 2849 ft 19 kts 23°
2026-04-25 18:12 37.02748 -113.51280 2852 ft 18 kts 24°
2026-04-25 18:12 37.02866 -113.51218 2856 ft 17 kts 23°
2026-04-25 18:12 37.02974 -113.51160 2859 ft 16 kts 23°
2026-04-25 18:13 37.03064 -113.51109 2862 ft 11 kts 37°
2026-04-25 18:13 37.03074 -113.51043 2862 ft 7 kts 125°
2026-04-25 18:13 37.03054 -113.50997 2862 ft 4 kts 114°
2026-04-25 18:14 37.03051 -113.50989 2862 ft 0 kts 115°